Temperature
8 8 8 8 8 8 8 9 9 9 9 9 9 9 10 10 10 10 10 10 10 10 10 10 10 10 10 10 10 11 11 11 11 11 11 11 11 11 11 11 11 12 12
7 7 7 7 8 8 8 8 8 8 8 9 9 9 9 9 9 9 9 9 9 10 10 10 10 10 10 10 10 10 10 10 10 11 11 11 11 11 11 11 11 11 11
6 6 7 7 7 7 7 7 7 7 8 8 8 8 8 8 8 8 9 9 9 9 9 9 9 9 9 9 10 9 10 10 10 10 10 10 10 11 11 11 11 11 11
5 6 6 6 6 6 6 6 7 7 7 7 7 8 8 8 8 8 8 8 8 8 8 8 9 9 9 9 9 9 9 9 9 9 10 10 10 10 10 10 10 10 10
5 5 5 5 5 5 6 6 6 6 6 6 7 7 7 7 7 7 7 7 7 7 7 8 8 8 8 8 8 8 8 9 9 9 9 9 9 9 9 10 10 10 10
4 4 4 4 5 5 5 5 5 5 5 5 6 6 6 6 6 6 6 6 6 6 7 7 7 7 7 8 8 8 8 8 8 8 8 8 9 9 9 9 9 9 9
3 4 4 4 4 4 4 4 4 4 4 4 5 5 6 5 5 5 5 6 6 6 6 6 6 6 7 7 7 7 7 7 7 8 8 8 8 8 8 8 8 9 9
3 3 3 3 3 3 3 3 3 3 3 3 3 3 4 4 4 5 5 5 5 5 5 5 5 6 6 6 6 6 6 7 7 7 7 7 7 7 7 8 8 8 8
2 2 2 2 2 2 2 2 2 2 2 3 2 2 2 2 3 3 3 3 4 4 4 4 4 5 5 5 5 5 5 6 6 6 6 6 6 6 7 7 7 7 7
1 1 1 1 1 1 1 1 1 1 1 2 2 1 1 1 1 1 2 2 3 3 3 3 3 4 4 4 4 4 4 4 5 5 5 5 5 6 6 6 6 7 7
1 0 0 0 0 0 0 1 1 1 1 1 1 1 1 1 1 0 0 1 2 2 2 2 3 3 3 3 3 3 3 3 4 4 4 4 5 5 5 5 6 6 6
-0 -0 -0 -0 -0 -0 -0 -0 -0 0 -0 -0 -0 -0 -0 -0 -0 -0 -0 -0 0 1 1 1 2 2 2 2 2 2 2 3 3 3 3 3 4 4 4 5 5 5 5
-1 -1 -1 -1 -1 -1 -1 -1 -1 -1 -1 -1 -1 -1 -1 -1 -1 -1 -1 -1 -1 -1 0 0 1 1 1 1 1 2 2 2 2 2 2 3 3 3 4 4 4 4 4
-2 -2 -2 -2 -2 -2 -2 -2 -2 -2 -2 -1 -2 -2 -2 -2 -2 -2 -2 -2 -2 -2 -1 -1 -0 0 0 0 1 1 1 1 1 1 2 2 2 2 3 3 3 3 4
-2 -3 -3 -2 -2 -2 -2 -2 -2 -2 -2 -2 -2 -2 -2 -2 -2 -2 -2 -2 -2 -3 -2 -2 -1 -1 -1 -1 -0 -0 0 0 0 1 1 1 1 2 2 2 2 3 3
-3 -3 -3 -3 -3 -3 -3 -3 -3 -3 -3 -3 -3 -3 -3 -3 -3 -3 -3 -3 -3 -3 -3 -2 -2 -2 -2 -2 -1 -1 -1 -0 -0 -0 0 0 1 1 1 1 2 2 2
-3 -4 -4 -4 -3 -3 -4 -3 -3 -4 -4 -3 -3 -3 -3 -3 -3 -3 -3 -3 -3 -3 -3 -3 -3 -3 -3 -2 -2 -2 -1 -1 -1 -1 -1 -0 -0 0 0 1 1 1 1
-4 -4 -4 -4 -4 -4 -4 -4 -4 -4 -4 -4 -4 -4 -4 -4 -4 -4 -4 -4 -4 -4 -4 -4 -4 -3 -3 -3 -3 -2 -2 -2 -2 -1 -1 -1 -1 -0 -0 0 0 0 0
-5 -5 -5 -5 -5 -5 -5 -5 -5 -5 -5 -5 -5 -5 -5 -5 -5 -5 -5 -5 -5 -4 -4 -4 -4 -4 -4 -4 -4 -3 -3 -3 -2 -2 -2 -2 -1 -1 -1 -0 -0 -0 -0
-5 -5 -5 -6 -6 -6 -6 -5 -6 -5 -5 -5 -5 -5 -5 -5 -5 -5 -5 -5 -5 -5 -5 -5 -5 -5 -4 -4 -4 -4 -4 -3 -3 -3 -2 -2 -2 -2 -1 -1 -1 -1 -0
-6 -6 -6 -6 -6 -6 -6 -6 -6 -6 -6 -6 -6 -6 -6 -6 -6 -5 -5 -5 -5 -5 -5 -5 -5 -5 -5 -5 -4 -4 -4 -4 -3 -3 -3 -2 -2 -2 -2 -1 -1 -1 -1
-6 -7 -7 -7 -7 -7 -7 -7 -7 -7 -6 -6 -6 -6 -6 -6 -6 -6 -6 -6 -6 -6 -5 -5 -5 -5 -5 -5 -5 -5 -5 -4 -4 -3 -3 -3 -3 -2 -2 -2 -2 -1 -1
-7 -7 -7 -7 -7 -7 -7 -7 -7 -7 -7 -7 -7 -7 -7 -7 -7 -6 -6 -6 -6 -6 -6 -6 -5 -5 -5 -5 -5 -5 -5 -5 -4 -4 -4 -3 -3 -3 -2 -2 -2 -2 -1
-8 -8 -8 -8 -8 -8 -8 -8 -8 -8 -8 -8 -8 -7 -7 -7 -7 -7 -7 -7 -6 -6 -6 -6 -6 -5 -5 -5 -5 -5 -5 -5 -4 -4 -4 -4 -3 -3 -3 -2 -2 -2 -2
-8 -8 -8 -8 -8 -8 -8 -8 -8 -8 -8 -8 -8 -8 -8 -8 -8 -7 -7 -7 -7 -6 -6 -6 -6 -6 -6 -5 -5 -5 -5 -5 -5 -4 -4 -4 -4 -4 -3 -3 -3 -2 -2
-9 -9 -9 -9 -9 -9 -9 -9 -9 -9 -9 -9 -9 -8 -8 -8 -8 -8 -8 -7 -7 -7 -7 -7 -7 -6 -6 -6 -6 -6 -6 -6 -5 -5 -5 -5 -4 -4 -4 -4 -3 -3 -3
Wind_Speed
9 10 10 11 11 11 10 9 9 9 8 8 7 7 6 6 5 5 5 7 8 8 8 8 8 7 7 5 4 3 3 3 3 2 2 1 2 1 1 1 1 1 1
10 9 9 9 10 11 10 9 9 8 6 6 6 6 6 5 5 5 5 5 6 6 7 7 7 7 7 5 4 4 3 3 3 2 1 1 1 0 1 1 1 1 1
10 9 8 8 10 11 10 9 9 8 6 6 4 5 5 5 4 4 5 5 5 5 7 7 7 7 7 6 5 4 4 3 2 2 1 1 0 1 2 2 3 2 2
10 9 8 7 10 10 9 6 5 4 5 5 4 3 4 4 4 3 4 4 5 5 6 6 6 7 7 6 5 4 4 4 4 3 2 2 1 2 2 3 3 4 4
11 9 8 9 10 8 7 6 5 4 4 5 5 3 2 2 3 3 3 4 5 6 6 7 7 7 7 6 6 5 5 5 5 4 4 3 3 3 3 4 4 5 5
11 9 8 9 9 6 5 5 5 4 4 4 5 4 3 2 1 2 3 4 5 6 7 7 7 6 7 7 7 6 6 6 5 5 5 5 4 4 4 5 5 6 6
9 9 8 7 8 5 4 4 4 5 4 4 3 3 3 1 1 2 3 3 4 6 7 7 7 6 6 7 8 7 6 6 6 6 6 6 5 5 5 6 6 6 7
9 8 8 7 7 5 5 5 4 4 3 4 3 2 2 2 2 2 2 1 2 5 6 6 7 7 6 6 6 8 7 7 7 7 6 6 7 7 7 7 7 7 8
8 8 8 7 7 5 4 4 4 4 3 3 3 2 1 1 3 2 2 1 1 2 3 5 6 6 6 6 6 7 8 8 8 8 7 7 7 8 8 8 8 8 8
6 7 7 7 6 5 4 4 4 3 3 3 2 2 2 1 1 2 2 1 2 2 2 5 5 6 6 6 7 8 8 9 9 9 10 9 9 9 9 9 10 10 10
5 6 6 6 6 5 5 6 4 3 3 3 3 3 3 3 2 3 4 3 3 2 2 4 4 5 6 6 6 7 8 10 11 11 11 11 10 11 11 11 11 11 11
3 5 5 6 6 5 5 5 5 4 3 4 4 3 3 2 3 2 4 5 5 3 4 4 3 4 6 6 6 8 10 11 11 12 13 13 12 11 12 12 12 12 12
3 3 5 5 5 5 6 6 5 4 3 4 4 4 3 4 4 4 5 6 6 5 4 3 3 5 6 5 7 10 10 12 13 13 14 14 12 11 12 12 13 13 13
3 4 5 5 6 6 6 5 5 4 4 4 5 5 4 4 4 4 5 5 7 5 4 4 3 5 5 7 9 10 10 12 13 15 15 15 13 12 12 12 13 13 13
4 5 6 6 6 6 6 5 4 4 4 4 5 5 5 5 4 4 4 5 5 7 7 4 3 3 7 8 10 10 10 13 15 16 16 16 15 13 13 13 13 13 13
4 5 5 6 6 6 6 5 4 5 5 5 5 5 5 5 4 5 5 5 5 7 8 5 4 5 8 10 13 12 12 16 16 16 17 17 16 15 14 14 14 14 14
4 4 5 5 5 6 6 5 5 5 5 6 6 6 6 6 6 5 5 5 6 6 9 8 6 5 6 7 10 12 12 12 13 16 18 18 17 16 16 15 15 15 14
4 5 5 5 6 6 6 5 6 6 6 7 7 7 7 7 7 6 6 6 6 7 8 10 7 6 7 7 7 8 10 12 12 15 18 18 18 17 16 16 16 15 15
5 5 5 5 6 6 6 6 6 6 6 7 7 8 8 7 8 7 7 7 7 7 6 8 9 6 6 6 7 8 9 8 11 14 16 17 17 16 16 16 16 16 16
4 5 6 6 6 7 7 6 6 6 6 7 7 8 8 8 8 8 8 8 8 7 7 8 8 8 7 7 6 7 8 6 7 10 13 15 16 16 16 16 17 17 17
6 6 6 6 6 6 7 7 6 7 7 7 7 8 9 11 12 11 10 8 8 7 7 8 9 8 8 6 7 6 8 7 7 6 7 8 8 8 11 14 16 17 17
5 5 6 6 7 7 11 13 11 7 7 8 9 9 9 11 12 15 16 15 13 10 9 9 9 10 10 8 7 8 7 8 8 4 6 8 6 7 8 10 15 17 18
5 6 6 6 7 9 14 14 14 9 7 8 8 9 10 9 11 8 12 15 14 17 16 12 11 12 11 9 9 10 9 9 10 6 6 9 7 8 8 12 16 17 17
5 6 7 7 7 9 14 15 15 9 7 8 8 9 10 9 10 10 9 10 10 11 13 10 10 11 10 9 9 10 11 10 9 7 6 9 8 8 7 8 14 16 16
6 6 7 7 7 9 14 15 15 7 7 9 9 9 9 9 14 16 11 11 11 10 14 16 17 16 17 17 14 8 8 8 9 7 4 6 7 6 6 6 10 14 14
7 7 8 7 7 8 13 15 14 6 7 8 8 9 12 13 16 16 11 10 11 10 9 10 11 13 12 13 16 10 8 9 8 7 4 4 6 5 5 4 4 6 9
Wind_Direction
17 14 14 17 15 10 9 5 2 3 4 6 6 8 13 21 36 42 43 44 38 30 24 21 18 15 12 18 34 46 46 51 57 70 74 76 86 86 82 80 95 124 123
19 16 13 13 12 5 2 3 357 358 358 0 357 0 7 14 31 36 42 36 34 29 22 17 15 13 10 9 20 34 40 45 39 37 54 64 76 106 246 240 232 205 206
20 18 15 11 7 2 360 359 357 0 359 358 353 351 0 7 20 30 39 32 30 30 21 13 12 11 8 6 12 23 27 32 21 18 16 348 317 280 253 251 240 234 235
19 18 16 8 4 4 2 355 357 359 357 352 344 333 344 358 8 28 37 40 38 31 22 17 16 10 4 1 6 19 25 25 21 12 6 354 327 298 275 261 252 243 240
16 17 14 7 3 5 5 359 357 360 353 350 336 326 338 351 356 21 39 40 41 36 30 26 18 13 9 8 7 11 13 18 15 7 356 348 337 321 301 281 268 257 250
14 15 12 8 5 5 7 6 356 356 353 344 330 327 316 297 359 40 37 45 39 35 34 28 20 16 14 11 6 4 3 7 8 360 354 342 332 321 312 298 280 268 262
13 14 10 4 5 3 2 1 358 350 353 346 338 330 318 318 50 59 37 33 35 31 28 23 19 14 5 2 1 356 349 346 345 345 342 335 329 320 313 309 297 285 272
12 11 11 3 0 356 355 360 360 349 343 360 348 327 335 335 0 346 356 2 25 28 19 7 7 2 357 355 348 344 339 335 329 326 323 323 318 315 306 305 303 294 286
9 8 5 2 357 354 347 346 357 358 335 336 360 358 357 308 328 294 270 331 20 7 356 354 352 349 343 348 343 332 326 323 319 312 307 307 306 304 304 298 296 295 294
9 6 2 358 355 353 344 337 353 341 330 315 318 322 297 293 287 306 293 295 319 320 329 333 330 327 326 327 324 319 320 315 310 307 302 297 297 295 296 297 293 290 286
7 2 359 355 352 348 344 338 335 334 321 307 303 304 302 301 266 259 283 297 302 285 292 308 304 304 307 310 305 303 305 311 308 304 300 293 292 292 292 291 292 288 284
352 356 355 352 344 339 337 331 325 315 309 307 305 294 287 277 282 275 276 289 292 287 290 284 284 291 291 293 295 300 299 299 303 304 299 291 288 290 290 289 289 290 287
332 342 346 337 327 325 323 322 316 309 298 298 293 288 281 273 276 280 280 282 286 284 274 273 285 290 287 296 298 294 292 292 294 297 297 290 284 286 287 288 286 285 284
312 327 329 323 318 316 313 314 306 301 298 285 285 283 281 276 272 271 269 278 287 279 266 266 278 281 294 298 292 290 290 288 290 291 294 291 280 280 283 283 283 282 281
315 323 321 314 309 307 302 299 292 290 296 280 271 272 270 273 270 263 259 251 267 276 275 268 267 281 303 297 289 287 287 284 285 286 286 290 278 273 275 277 277 277 275
313 310 308 307 306 304 299 292 286 286 284 284 274 269 270 270 274 267 256 254 258 263 270 267 278 283 290 289 285 284 283 282 280 280 280 283 275 270 270 270 270 271 270
300 299 302 302 301 299 295 285 279 282 279 283 281 275 272 271 271 269 258 253 258 260 268 276 273 273 272 278 285 282 279 275 271 274 275 277 274 269 266 264 265 266 267
302 301 301 296 294 296 293 280 276 280 278 277 279 275 274 274 270 270 264 257 259 259 261 274 277 275 271 271 272 273 279 274 271 272 273 275 272 269 262 261 261 261 262
296 298 294 292 294 293 291 279 272 273 274 273 278 276 274 274 273 270 263 261 263 266 261 266 274 273 272 272 274 276 274 272 273 273 272 273 271 269 263 260 260 259 259
290 288 287 288 290 290 291 287 283 278 276 275 277 278 275 272 270 269 267 260 262 262 260 262 268 271 271 268 267 270 276 268 273 278 273 271 269 269 267 263 260 258 257
289 286 289 290 290 288 286 287 283 280 279 282 281 282 279 278 278 275 273 264 259 257 258 260 264 272 272 268 266 269 275 278 271 271 272 266 263 260 259 260 258 255 255
291 291 289 287 287 288 290 292 293 285 284 285 286 287 282 279 279 282 283 283 274 264 258 257 262 261 265 265 268 272 275 277 279 260 266 272 262 260 250 249 254 256 256
287 286 286 284 282 285 291 292 294 294 287 285 283 285 286 285 288 281 284 286 283 279 273 265 261 261 264 262 261 266 264 266 271 269 275 274 267 260 252 255 259 256 256
285 282 284 281 284 288 293 294 296 294 285 281 280 279 281 281 280 282 279 279 271 270 270 268 262 263 265 264 256 261 267 268 273 262 251 269 270 264 266 253 256 259 256
292 288 286 285 284 289 294 294 294 286 284 283 281 281 282 280 283 287 286 282 278 273 276 276 274 276 276 279 281 276 272 271 274 271 248 258 272 276 267 256 253 257 254
291 294 293 289 283 285 292 295 294 286 284 286 285 284 285 285 287 289 285 280 279 276 276 278 278 276 273 274 276 267 263 266 272 276 252 253 273 277 277 262 247 251 253
Height
1536 1536 1536 1536 1536 1536 1536 1536 1536 1536 1537 1537 1538 1538 1539 1539 1539 1540 1540 1540 1541 1541 1541 1541 1541 1541 1541 1541 1542 1542 1543 1543 1544 1544 1545 1545 1546 1546 1547 1548 1548 1549 1550
1535 1535 1535 1535 1534 1534 1534 1534 1534 1534 1535 1535 1535 1536 1537 1537 1537 1538 1538 1538 1538 1539 1539 1539 1539 1539 1540 1540 1540 1540 1541 1541 1542 1542 1543 1543 1544 1544 1545 1546 1547 1547 1548
1534 1533 1533 1533 1533 1532 1532 1533 1533 1532 1532 1533 1533 1533 1534 1534 1535 1535 1535 1536 1536 1536 1536 1536 1537 1537 1537 1538 1538 1538 1539 1539 1539 1540 1540 1541 1542 1542 1543 1544 1544 1545 1546
1533 1532 1532 1531 1531 1531 1530 1530 1530 1530 1530 1530 1530 1530 1531 1531 1532 1533 1533 1533 1533 1533 1534 1534 1534 1535 1535 1535 1536 1536 1536 1537 1537 1537 1538 1538 1539 1540 1540 1541 1542 1542 1543
1531 1531 1530 1530 1529 1529 1528 1528 1528 1528 1528 1527 1528 1528 1528 1529 1529 1530 1530 1531 1531 1531 1531 1531 1532 1532 1532 1533 1533 1533 1534 1534 1534 1535 1535 1536 1536 1537 1538 1538 1539 1540 1540
1530 1530 1529 1528 1527 1527 1527 1526 1526 1526 1525 1525 1525 1525 1525 1526 1526 1527 1528 1528 1528 1529 1529 1529 1529 1529 1529 1529 1529 1530 1531 1531 1531 1532 1532 1533 1533 1534 1534 1535 1536 1536 1537
1528 1528 1527 1526 1526 1525 1525 1524 1524 1523 1523 1523 1522 1521 1522 1523 1523 1524 1525 1525 1526 1526 1526 1526 1526 1526 1526 1526 1527 1527 1527 1528 1528 1528 1529 1529 1530 1530 1531 1531 1532 1532 1533
1526 1526 1525 1525 1524 1523 1522 1522 1521 1521 1521 1521 1521 1519 1519 1520 1520 1521 1522 1522 1522 1522 1523 1523 1523 1523 1523 1523 1523 1523 1524 1524 1525 1525 1525 1525 1526 1526 1527 1527 1528 1528 1529
1524 1524 1523 1522 1522 1521 1520 1519 1519 1518 1518 1519 1519 1520 1519 1517 1517 1517 1517 1518 1519 1518 1519 1519 1519 1519 1519 1519 1519 1519 1520 1520 1520 1520 1521 1521 1521 1522 1522 1523 1523 1524 1524
1522 1521 1521 1520 1519 1518 1518 1517 1517 1516 1516 1516 1517 1517 1518 1517 1516 1514 1514 1514 1515 1515 1515 1515 1515 1515 1515 1515 1515 1515 1515 1515 1516 1516 1516 1516 1517 1517 1517 1517 1518 1518 1519
1519 1518 1518 1517 1516 1516 1515 1514 1514 1514 1513 1513 1513 1513 1514 1514 1513 1512 1510 1510 1510 1510 1510 1510 1510 1510 1510 1510 1510 1510 1511 1511 1511 1511 1511 1511 1511 1511 1512 1512 1513 1513 1513
1516 1516 1515 1514 1513 1513 1512 1511 1510 1511 1510 1510 1510 1510 1510 1510 1509 1509 1507 1505 1504 1504 1505 1506 1505 1505 1505 1505 1506 1506 1506 1506 1505 1505 1505 1505 1505 1506 1506 1506 1506 1507 1507
1513 1512 1512 1511 1510 1509 1508 1508 1507 1507 1507 1506 1506 1506 1506 1506 1506 1506 1504 1502 1500 1499 1500 1500 1501 1501 1501 1501 1501 1501 1500 1500 1500 1500 1500 1499 1499 1499 1499 1500 1500 1500 1501
1511 1509 1508 1508 1507 1505 1505 1504 1504 1503 1503 1502 1502 1502 1501 1501 1502 1501 1501 1500 1496 1494 1494 1494 1495 1496 1496 1496 1495 1495 1494 1494 1494 1493 1493 1493 1493 1493 1493 1493 1493 1494 1494
1508 1506 1505 1504 1503 1502 1501 1501 1500 1499 1498 1498 1497 1497 1497 1497 1497 1497 1497 1497 1496 1491 1487 1488 1489 1489 1490 1490 1489 1489 1488 1488 1487 1487 1487 1486 1486 1486 1486 1487 1487 1487 1488
1504 1503 1502 1500 1499 1498 1497 1496 1495 1495 1494 1493 1493 1492 1492 1492 1491 1492 1491 1491 1490 1489 1484 1481 1482 1483 1484 1484 1483 1483 1482 1481 1481 1480 1480 1479 1479 1480 1480 1480 1480 1481 1481
1501 1500 1498 1496 1495 1493 1492 1491 1490 1490 1489 1488 1488 1487 1486 1486 1486 1486 1485 1485 1485 1484 1479 1476 1477 1477 1477 1477 1476 1476 1475 1474 1473 1473 1473 1472 1473 1473 1473 1473 1473 1474 1474
1497 1496 1494 1492 1491 1489 1488 1486 1485 1485 1484 1483 1482 1481 1481 1481 1480 1480 1479 1478 1478 1477 1476 1471 1470 1471 1471 1471 1470 1469 1469 1468 1467 1466 1466 1466 1466 1466 1466 1466 1466 1466 1467
1493 1491 1490 1488 1486 1485 1483 1482 1481 1479 1479 1478 1477 1476 1475 1474 1473 1473 1472 1472 1471 1471 1470 1468 1465 1465 1465 1465 1464 1463 1462 1461 1461 1460 1460 1459 1459 1459 1458 1459 1459 1459 1459
1489 1487 1486 1484 1482 1480 1478 1477 1476 1475 1474 1473 1471 1470 1469 1468 1467 1467 1466 1465 1465 1465 1464 1462 1460 1459 1459 1459 1459 1457 1455 1455 1454 1454 1453 1452 1452 1451 1451 1451 1451 1451 1452
1485 1483 1481 1479 1477 1475 1474 1472 1471 1469 1468 1466 1465 1464 1463 1462 1461 1461 1460 1459 1459 1458 1457 1456 1455 1453 1453 1453 1452 1451 1450 1448 1447 1447 1445 1445 1444 1444 1443 1443 1443 1443 1444
1480 1479 1477 1475 1473 1471 1470 1468 1467 1464 1463 1461 1459 1458 1457 1456 1455 1454 1454 1453 1453 1452 1450 1450 1448 1447 1446 1446 1446 1445 1444 1442 1439 1440 1439 1437 1438 1436 1436 1435 1435 1436 1437
1476 1474 1472 1470 1468 1466 1465 1463 1462 1460 1457 1455 1454 1452 1451 1450 1449 1448 1446 1446 1445 1445 1445 1444 1441 1440 1439 1439 1439 1438 1437 1435 1433 1433 1434 1430 1430 1429 1428 1428 1428 1428 1429
1471 1469 1467 1465 1463 1461 1460 1458 1456 1454 1452 1450 1449 1447 1445 1443 1442 1441 1440 1438 1437 1436 1436 1435 1434 1433 1433 1433 1433 1432 1430 1429 1427 1427 1428 1424 1422 1422 1421 1420 1421 1420 1421
1466 1464 1463 1460 1458 1456 1455 1453 1451 1449 1446 1444 1443 1441 1439 1437 1436 1435 1434 1432 1430 1428 1428 1427 1427 1426 1426 1426 1426 1425 1423 1422 1418 1418 1420 1418 1416 1415 1413 1412 1413 1413 1414
1462 1460 1457 1456 1453 1451 1450 1448 1446 1443 1441 1438 1437 1435 1433 1432 1430 1429 1428 1425 1423 1421 1420 1419 1418 1418 1418 1417 1417 1417 1416 1415 1412 1411 1411 1412 1410 1409 1405 1405 1406 1406 1406